Weather History for KBRD - November, 2012

Change the Weather History Date:

Tuesday, November 20, 2012

  Actual Average (WUND) Record (WUND)
Temperature  
Mean Temperature 34 °F -  
Max Temperature 46 °F - - (-1)
Min Temperature 23 °F - - (-1)
Degree Days  
Heating Degree Days 30    
Moisture  
Dew Point 28 °F    
Average Humidity 81    
Maximum Humidity 100    
Minimum Humidity 53    
Precipitation  
Precipitation 0.00 in - - ()
Sea Level Pressure  
Sea Level Pressure 30.14 in    
Wind  
Wind Speed 2 mph (South)    
Max Wind Speed 12 mph    
Max Gust Speed -    
Visibility 4 miles    
Events Fog    
Averages and records for this station are not official NWS values.
T = Trace of Precipitation, MM = Missing Value Source: NWS Daily Summary

Daily Weather History Graph

Daily Weather History Graph

Search for Another Location

Airport or City:

Trip Planner

Search our weather history database for the weather conditions in past years. The results will help you decide how hot, cold, wet, or windy it might be!

Date:

Astronomy

Nov. 20, 2012 Rise Set
Actual Time 7:25 AM CST 4:38 PM CST
Civil Twilight 6:52 AM CST 5:11 PM CST
Nautical Twilight 6:15 AM CST 5:48 PM CST
Astronomical Twilight 5:39 AM CST 6:24 PM CST
Moon 12:48 PM CST (11/20) No Moon Set
Length of Visible Light 10h 18m
Length of Day
9h 12m
First Quarter, 51% of the Moon is Illuminated
Nov 20
First Quarter
Nov 28
Full
Dec 6
Last Quarter
Dec 13
New
Dec 19
First Quarter

Hourly Weather History & Observations

Time (CST) Temp. Windchill Dew Point Humidity Pressure Visibility Wind Dir Wind Speed Gust Speed Precip Events Conditions
12:53 AM 30.9 °F 25.2 °F 28.0 °F 89% 30.16 in 5.0 mi NW 5.8 mph - N/A   Clear
1:31 AM 30.2 °F - 28.4 °F 93% 30.12 in 1.5 mi Calm Calm - N/A   Clear
1:47 AM 30.2 °F - 26.6 °F 86% 30.12 in 0.8 mi Calm Calm - N/A   Clear
2:03 AM 30.2 °F - 26.6 °F 86% 30.12 in 0.2 mi Calm Calm - N/A Fog Light Freezing Fog
2:53 AM 28.0 °F - 25.0 °F 88% 30.17 in 0.2 mi Calm Calm - N/A Fog Light Freezing Fog
3:53 AM 24.1 °F - 21.9 °F 91% 30.17 in 0.2 mi Calm Calm - N/A Fog Light Freezing Fog
4:53 AM 23.0 °F - 19.9 °F 88% 30.18 in 0.2 mi Calm Calm - N/A Fog Light Freezing Fog
5:30 AM 23.0 °F - 19.4 °F 86% 30.14 in 0.2 mi Calm Calm - N/A Fog Light Freezing Fog
5:53 AM 24.1 °F - 19.9 °F 84% 30.18 in 0.2 mi Calm Calm - N/A Fog Light Freezing Fog
6:53 AM 26.1 °F - 21.9 °F 84% 30.19 in 0.2 mi Calm Calm - N/A Fog Light Freezing Fog
7:53 AM 25.0 °F - 21.9 °F 88% 30.19 in 0.2 mi Calm Calm - N/A Fog Light Freezing Fog
8:53 AM 28.9 °F 22.8 °F 26.1 °F 89% 30.21 in 0.2 mi West 5.8 mph - N/A Fog Light Freezing Fog
9:31 AM 28.4 °F 24.6 °F 26.6 °F 93% 30.16 in 0.2 mi WSW 3.5 mph - N/A Fog Light Freezing Fog
9:50 AM 30.2 °F - 26.6 °F 86% 30.15 in 0.2 mi Calm Calm - N/A Fog Light Freezing Fog
9:53 AM 30.0 °F - 28.0 °F 92% 30.20 in 0.2 mi Calm Calm - N/A Fog Light Freezing Fog
10:17 AM 30.2 °F - 28.4 °F 93% 30.16 in 0.2 mi Calm Calm - N/A Fog Light Freezing Fog
10:34 AM 30.2 °F - 28.4 °F 93% 30.16 in 0.2 mi Calm Calm - N/A Fog Light Freezing Fog
10:44 AM 32.0 °F - 30.2 °F 93% 30.16 in 0.2 mi Calm Calm - N/A Fog Fog
10:53 AM 32.0 °F - 30.0 °F 92% 30.21 in 0.2 mi Calm Calm - N/A Fog Fog
11:40 AM 33.8 °F 30.8 °F 32.0 °F 93% 30.14 in 0.5 mi South 3.5 mph - N/A Fog Fog
11:53 AM 33.1 °F - 30.9 °F 92% 30.19 in 1.5 mi Calm Calm - N/A   Overcast
12:02 PM 33.8 °F 30.8 °F 32.0 °F 93% 30.14 in 2.5 mi SE 3.5 mph - N/A   Overcast
12:12 PM 33.8 °F - 33.8 °F 100% 30.14 in 4.0 mi Calm Calm - N/A   Mostly Cloudy
12:33 PM 37.4 °F - 33.8 °F 87% 30.13 in 5.0 mi Calm Calm - N/A   Partly Cloudy
12:53 PM 39.0 °F - 33.1 °F 79% 30.18 in 8.0 mi Calm Calm - N/A   Clear
1:53 PM 46.0 °F 43.9 °F 30.0 °F 54% 30.14 in 10.0 mi SSE 4.6 mph - N/A   Clear
2:53 PM 46.9 °F - 30.9 °F 54% 30.10 in 10.0 mi SSE 5.8 mph - N/A   Clear
3:53 PM 43.0 °F 41.3 °F 27.0 °F 53% 30.11 in 10.0 mi SSE 3.5 mph - N/A   Clear
4:53 PM 39.9 °F 35.8 °F 25.0 °F 55% 30.11 in 10.0 mi SSE 5.8 mph - N/A   Clear
5:53 PM 39.0 °F 35.7 °F 27.0 °F 62% 30.09 in 10.0 mi SSE 4.6 mph - N/A   Clear
6:53 PM 39.0 °F 34.0 °F 28.0 °F 65% 30.07 in 10.0 mi South 6.9 mph - N/A   Clear
7:53 PM 39.9 °F 34.5 °F 28.0 °F 63% 30.06 in 10.0 mi South 8.1 mph - N/A   Clear
8:53 PM 39.9 °F 33.9 °F 30.0 °F 68% 30.05 in 10.0 mi South 9.2 mph - N/A   Clear
9:53 PM 39.0 °F 34.0 °F 30.0 °F 70% 30.06 in 10.0 mi SSW 6.9 mph - N/A   Clear
10:53 PM 42.1 °F 36.1 °F 30.9 °F 65% 30.01 in 10.0 mi South 10.4 mph - N/A   Clear
11:53 PM 43.0 °F 36.8 °F 30.0 °F 60% 30.00 in 10.0 mi South 11.5 mph - N/A   Clear